Tracking 19149 objects as of 20-Apr-2018
HD Live streaming from Space Station
objects crossing your sky now

WESTAR 3

Track WESTAR 3 now!
WESTAR 3 is classified as:


NORAD ID: 11484
Int'l Code: 1979-072A
Perigee: 35,866.4 km
Apogee: 35,909.9 km
Inclination: 14.5 °
Period: 1,440.9 minutes
Semi major axis: 42259 km
RCS: 3.6567 m2 (large)
Launch date: August 10, 1979
Source: United States (US)
Launch site: AIR FORCE EASTERN TEST RANGE (AFETR)
aabbcc
Your satellite tracking list
Your tracking list is empty




NASA's NSSDC Master Catalog

Two Line Element Set (TLE):
1 11484U 79072A   18109.62266300 -.00000143 +00000-0 +00000-0 0  9996
2 11484 014.4652 346.5674 0005147 308.1291 222.9050 00.99936006110721
Source of the keplerian elements: AFSPC